Theta_e
270 270 270 271 271 271 271 271 271 271 271 271 271 271 272 272 273 273 273 274 274 274 275 275 276 276 276 277 277 278 279 279 280 281 282 283 283 284 285 286 287 287 288 289 289 290 290 291 291 291 292 293 293 294 295 295 296 296 297 299 302 304 307 309 310 310 311 312 313 313 313 313 314 314
269 269 270 270 271 271 271 271 271 271 271 271 271 271 271 272 272 273 273 273 274 274 274 275 275 275 276 276 277 277 278 278 279 280 281 282 282 283 284 284 286 287 287 288 289 289 290 290 290 291 292 292 293 293 294 295 295 296 295 296 298 300 304 307 309 309 310 311 311 312 312 312 313 314
269 269 270 270 270 271 271 271 271 271 271 271 271 271 271 272 272 272 273 273 273 273 274 274 274 275 275 275 276 277 277 278 278 278 279 280 281 282 283 283 284 286 287 287 288 288 289 289 290 290 291 292 292 293 294 294 295 296 296 296 296 297 300 303 306 308 309 310 311 311 311 311 312 312
269 269 269 269 270 270 270 270 271 271 271 270 270 270 271 271 272 272 273 273 273 273 273 273 274 274 274 274 275 276 276 277 277 278 278 279 280 281 282 283 283 284 285 286 287 288 288 289 289 290 290 291 291 292 293 294 295 295 296 296 295 295 296 299 302 305 306 308 309 310 310 310 310 311
270 269 269 269 269 270 270 270 270 270 270 270 270 270 270 271 271 272 272 272 272 272 273 273 273 273 273 274 274 275 275 276 277 277 277 278 279 280 281 282 283 283 284 285 286 287 287 288 289 289 290 290 290 291 292 293 294 295 295 295 295 295 295 296 298 300 302 304 306 308 309 309 309 309
271 270 270 269 269 269 269 270 270 270 270 270 270 270 270 270 270 271 271 272 272 272 272 272 272 273 273 273 273 274 274 275 276 277 277 278 278 279 280 281 282 283 283 284 285 285 286 287 288 288 289 289 290 290 291 292 293 293 294 295 295 295 295 295 295 295 296 299 302 304 305 306 307 308
271 271 270 270 270 269 269 269 269 270 270 270 270 270 270 270 270 270 270 271 271 272 272 272 272 272 272 273 273 273 274 274 275 276 277 278 278 278 279 280 281 282 282 283 283 284 285 286 287 288 288 289 289 290 290 291 291 292 293 293 294 294 295 295 295 294 294 296 297 299 301 302 304 306
272 271 271 271 270 269 269 269 269 269 269 269 269 270 270 270 270 270 270 270 271 271 271 271 272 272 272 272 272 273 274 274 275 276 276 277 278 278 279 279 280 280 281 282 282 283 284 285 286 286 287 288 288 289 290 290 290 291 291 292 292 293 294 294 295 295 294 294 295 296 297 299 300 302
273 272 272 272 271 270 270 270 269 269 269 269 269 269 269 269 270 270 270 270 270 271 271 271 271 272 272 272 272 273 274 274 275 275 276 276 277 278 278 279 279 279 280 281 282 282 283 284 284 285 286 287 287 288 289 289 290 290 291 291 291 292 292 293 293 294 294 294 294 294 295 297 298 300
273 273 272 272 271 271 270 270 270 269 269 269 268 268 269 269 269 269 269 270 270 270 271 271 271 272 272 272 273 273 273 274 274 275 276 276 277 278 278 278 279 279 279 280 281 282 282 283 283 284 285 285 286 287 287 288 289 290 290 291 291 291 292 292 292 293 293 294 294 294 294 296 298 300
273 273 273 272 272 272 271 271 271 270 269 269 269 269 269 269 269 269 269 269 270 270 270 271 271 271 272 272 272 273 273 274 274 275 275 276 277 277 278 278 279 279 280 280 280 281 281 282 282 283 283 284 285 285 286 287 288 288 289 290 290 291 291 291 292 292 292 293 293 293 293 294 296 298
274 274 273 273 273 272 272 272 271 271 270 269 269 269 269 269 270 269 269 269 269 270 270 270 271 271 271 272 272 273 273 274 274 275 275 276 277 278 278 279 279 280 280 280 280 280 281 281 282 282 283 283 284 284 285 286 286 287 288 288 289 290 290 290 291 291 291 292 292 292 293 293 293 295
275 275 274 273 273 272 272 272 271 271 271 270 270 270 270 269 269 269 269 269 269 269 270 270 271 271 272 272 272 273 273 274 275 275 275 275 277 278 279 280 280 280 280 280 281 281 281 281 282 282 282 282 283 284 284 284 285 286 286 287 287 288 289 289 290 290 291 291 291 291 292 292 293 293
276 276 275 274 274 273 272 272 271 271 271 271 270 270 270 270 269 269 269 269 269 269 269 270 271 271 272 272 272 273 274 274 274 275 275 276 277 278 279 280 281 281 281 281 281 282 282 282 282 282 282 282 283 283 283 284 284 284 285 285 286 286 287 288 288 289 289 290 290 291 291 291 292 292
277 277 276 276 275 273 272 272 272 271 271 271 271 270 270 270 270 270 270 270 270 270 270 270 271 271 272 272 273 273 274 274 274 275 275 276 277 278 278 279 281 281 282 282 282 282 282 283 283 282 282 282 282 283 283 283 284 284 284 284 284 285 285 286 287 287 288 288 289 290 290 291 291 291
277 277 277 276 275 274 273 272 272 272 272 271 271 270 271 271 271 271 271 271 271 271 271 271 271 271 272 273 273 274 274 274 275 275 276 276 277 278 278 279 280 281 282 282 282 283 283 283 283 283 283 283 283 283 283 283 283 283 283 284 284 284 284 285 285 286 286 287 287 288 289 289 290 290
277 277 277 277 276 276 275 274 273 273 272 272 271 271 271 271 272 272 272 272 272 272 272 272 272 272 272 273 274 274 275 275 275 276 277 277 277 278 279 280 280 281 282 282 282 282 283 283 283 283 283 283 283 283 283 283 283 283 283 283 284 284 284 284 285 285 285 286 286 287 287 288 288 289
277 277 277 277 276 276 276 275 275 274 274 273 272 272 272 272 272 272 272 273 273 273 273 273 273 273 273 274 275 275 275 275 276 277 278 278 278 278 279 280 280 281 281 282 282 282 283 283 283 283 283 283 283 283 283 283 283 283 283 283 284 284 284 284 284 285 285 285 286 286 287 287 287 288
277 277 277 277 276 276 276 276 276 276 275 275 274 274 273 273 273 273 273 273 273 273 273 273 274 274 274 275 275 276 276 276 277 278 278 278 278 279 279 280 280 281 281 281 281 282 283 283 283 283 283 283 283 283 283 283 283 283 283 283 284 284 284 284 284 285 285 285 285 286 286 286 287 287
277 276 276 276 276 276 276 276 276 276 276 276 275 275 275 274 274 274 274 274 274 274 274 274 274 275 275 276 276 277 277 277 278 279 279 279 279 278 279 280 281 281 281 282 282 282 283 283 283 283 283 283 284 284 284 284 283 283 283 283 284 284 284 284 284 284 285 285 285 286 286 286 287 287
276 276 276 276 276 276 276 276 276 276 276 276 276 276 276 275 275 275 275 275 275 275 275 275 275 275 276 276 277 277 278 278 279 279 279 280 280 279 279 280 281 281 282 282 282 282 283 283 284 284 284 284 284 284 284 284 284 284 284 284 284 284 284 284 284 284 285 285 285 285 286 286 286 286
276 276 276 276 276 276 276 276 276 276 276 276 276 276 276 276 276 275 276 276 276 276 276 276 276 276 276 277 277 278 278 279 279 279 279 280 280 280 280 281 281 282 282 282 282 282 283 284 284 284 284 284 285 285 285 285 285 285 285 285 285 285 285 284 284 284 284 285 285 285 285 286 286 286
276 276 276 275 276 276 276 276 276 276 276 276 276 276 276 276 276 276 276 276 277 277 277 277 277 277 277 278 278 278 279 279 280 280 280 281 281 281 281 281 281 282 282 282 283 283 284 284 284 284 284 284 285 285 285 285 286 286 286 286 286 286 286 286 285 285 285 285 285 285 285 286 286 286
277 276 276 275 276 276 276 276 276 277 277 277 277 277 276 276 277 277 277 277 277 277 277 278 278 278 278 278 279 279 279 279 280 280 281 281 281 281 282 282 282 281 282 282 282 283 283 284 284 284 285 285 285 285 285 285 285 285 286 286 286 286 286 286 286 286 286 286 286 285 285 285 285 285
277 276 275 275 276 277 277 277 277 277 277 277 277 277 277 277 278 278 278 278 278 278 278 278 278 278 278 279 279 280 280 280 280 281 281 282 282 282 282 282 282 282 281 282 282 282 283 283 283 284 284 284 284 284 284 285 285 285 285 286 286 286 286 286 286 286 287 287 287 286 286 286 285 285
276 275 275 276 276 276 276 277 277 277 277 277 278 278 278 278 278 278 278 278 278 279 279 279 278 278 278 279 279 280 280 281 281 281 281 281 282 282 282 282 282 282 282 282 282 283 283 283 283 284 284 284 284 284 284 284 284 284 285 285 286 286 286 286 286 286 286 287 287 287 287 287 286 286
275 275 275 276 276 276 276 276 276 277 277 277 278 278 278 278 278 278 279 279 279 279 279 279 279 279 279 279 279 280 280 281 281 281 281 281 281 281 282 282 282 282 282 282 282 283 283 283 283 284 284 283 284 283 283 284 284 284 284 285 285 286 286 286 286 286 286 286 287 287 287 287 287 287
275 275 275 276 275 275 275 276 276 276 277 277 277 278 278 278 278 278 279 279 279 279 279 279 279 279 279 279 279 279 280 280 281 281 281 281 281 281 281 281 281 282 282 282 282 282 283 283 283 283 283 283 283 283 283 283 283 284 284 284 285 285 285 286 286 286 286 286 286 287 287 287 287 287
276 275 275 275 275 275 275 276 276 277 277 277 278 278 278 278 278 278 279 279 279 279 279 279 279 279 279 279 279 279 280 280 281 281 281 281 281 281 281 281 281 281 281 282 282 282 282 282 283 283 283 283 283 283 283 283 283 283 284 284 285 285 285 285 286 286 286 286 286 286 286 287 287 287
276 275 275 275 275 275 275 276 276 277 277 277 278 278 278 278 278 278 278 278 278 279 279 279 279 279 279 280 280 280 280 280 281 281 281 281 281 281 281 280 281 281 281 281 281 282 282 282 282 282 282 282 283 283 283 283 283 283 283 284 284 285 285 285 285 285 286 286 286 287 286 286 286 286
275 275 275 275 275 275 275 276 276 276 277 277 278 278 278 278 278 278 278 278 278 278 279 279 279 279 280 280 280 280 280 280 281 281 281 281 281 281 281 281 281 281 281 281 281 281 282 282 282 282 282 282 283 283 283 283 283 283 283 284 284 285 285 285 285 285 285 286 286 286 287 287 286 286
275 275 274 274 274 275 275 276 276 276 276 277 277 277 277 277 277 277 277 278 278 278 279 279 279 279 280 280 280 280 280 280 280 281 281 281 281 281 281 281 281 281 281 281 281 281 282 282 282 282 282 282 283 283 283 283 283 283 283 284 284 284 284 284 284 285 285 285 285 286 286 287 287 287
274 274 274 274 274 274 275 275 275 276 276 276 276 276 276 276 276 276 276 277 277 278 278 278 279 279 280 280 280 280 280 279 279 280 280 281 281 281 281 281 281 281 281 281 281 281 282 282 282 282 282 282 282 282 283 283 283 283 284 284 284 284 284 284 284 285 285 285 285 285 286 286 287 288
274 274 274 274 274 274 275 275 275 275 276 276 276 276 276 276 276 276 276 276 277 277 278 278 279 279 280 280 280 280 280 279 279 279 279 280 280 281 281 281 281 281 281 281 281 281 282 282 282 282 282 282 282 282 283 283 283 283 284 284 284 284 284 284 284 285 285 285 285 285 285 286 286 286
274 274 274 274 274 274 275 275 275 275 275 275 275 276 276 276 276 276 276 276 277 278 278 279 279 279 279 280 280 280 280 280 279 279 279 279 280 281 281 281 281 281 281 281 281 282 282 282 282 282 282 282 282 282 283 283 283 283 284 284 284 284 284 284 284 284 284 284 284 284 285 285 285 285
274 274 273 273 273 274 274 274 274 274 274 275 275 275 276 276 277 277 277 277 277 278 278 279 279 279 279 279 279 279 279 279 280 280 279 279 280 280 281 281 281 280 280 281 281 282 282 282 282 282 282 282 282 283 283 282 282 283 283 284 284 284 284 284 284 283 283 283 283 284 284 284 285 285
274 273 273 273 273 274 274 274 273 273 274 274 275 275 275 276 276 277 277 277 277 277 278 278 279 279 279 279 279 278 279 279 279 280 280 280 280 280 281 281 280 280 280 281 282 282 282 282 282 282 282 282 283 283 283 283 283 283 283 284 284 284 284 283 283 283 283 283 283 283 283 283 283 283
273 273 273 273 273 273 273 273 272 273 273 274 274 274 275 275 276 276 277 277 277 277 278 278 279 279 278 278 278 278 278 279 279 280 280 280 280 280 281 281 280 280 281 281 282 282 282 282 282 282 282 282 283 283 283 282 283 283 283 283 283 283 283 283 283 283 283 283 282 283 283 283 283 283
273 272 272 272 273 273 272 272 272 273 273 273 274 274 275 275 276 276 276 277 277 277 278 279 279 279 278 277 277 277 279 279 280 280 280 280 280 280 281 280 280 281 282 282 282 282 282 282 282 282 282 283 283 283 283 283 283 283 283 283 283 283 283 283 283 283 283 282 282 282 282 282 282 282
272 272 272 272 272 273 273 272 273 273 273 273 274 274 274 275 275 276 276 277 277 277 278 279 279 279 279 278 278 278 280 280 280 281 281 281 281 281 281 281 281 281 282 282 282 282 282 283 283 283 283 283 283 283 283 283 283 283 283 283 283 283 283 283 283 283 282 282 282 282 282 282 282 282
271 271 272 272 272 273 272 272 272 273 273 273 273 274 274 275 275 275 276 276 277 277 278 278 279 279 279 279 279 279 280 281 281 281 281 281 281 281 281 281 282 282 282 282 282 282 283 283 283 283 283 283 283 283 283 282 282 282 282 283 283 283 283 283 283 282 282 282 282 282 282 282 281 281
271 271 272 272 272 272 272 272 272 273 273 273 273 273 274 274 275 275 275 276 277 277 278 278 279 279 280 280 280 280 280 281 281 281 281 281 281 281 282 282 282 282 282 282 282 282 282 282 282 282 282 282 282 282 282 282 282 282 282 282 282 283 283 282 283 282 282 282 282 281 281 281 281 281
271 271 272 272 272 272 272 272 272 272 272 273 273 273 273 274 274 275 275 275 276 277 277 278 278 279 279 280 280 280 280 281 281 281 281 281 281 282 282 282 282 282 282 282 281 282 282 282 282 282 282 282 282 282 282 282 282 281 281 282 282 282 282 282 282 282 282 282 281 281 281 281 281 281
270 271 272 272 272 272 272 272 272 272 272 272 273 273 273 273 274 274 274 275 275 276 277 277 277 278 279 279 280 280 281 281 281 281 282 282 282 282 282 281 281 281 281 280 280 280 281 281 281 281 281 281 281 281 281 281 281 281 281 281 281 281 282 282 281 281 281 281 281 281 281 280 280 280
270 271 271 271 271 271 272 272 272 272 272 272 272 272 272 273 273 274 274 274 275 275 276 276 276 277 278 279 280 280 281 281 281 281 281 281 281 281 281 281 281 281 281 280 280 280 281 281 281 281 281 281 281 281 281 281 281 281 281 281 281 281 281 281 281 280 280 280 280 280 280 280 280 280
Wind_Speed
30 29 28 28 28 27 26 25 25 24 23 23 23 24 24 25 26 26 26 27 27 24 23 24 23 20 20 21 23 24 25 25 25 26 26 26 26 26 26 26 26 26 25 26 27 26 25 24 23 23 22 23 23 22 21 21 23 25 28 31 33 30 26 24 22 22 21 21 21 20 21 25 28 29
27 27 26 26 26 26 25 24 24 23 22 21 21 22 23 24 26 28 28 28 24 20 21 22 21 22 23 25 26 27 27 27 26 26 26 26 27 27 27 28 28 28 27 27 28 28 27 25 24 24 24 24 23 23 22 21 22 24 26 29 33 33 32 29 25 24 23 22 21 20 19 22 25 27
28 27 27 27 26 26 25 25 25 24 23 22 21 21 21 22 25 26 26 31 29 22 21 23 22 24 27 28 29 30 29 29 28 27 27 27 28 29 30 30 31 31 30 30 29 29 29 28 27 26 26 25 24 24 23 22 21 22 25 26 29 32 35 34 31 27 25 24 23 21 20 21 23 25
28 29 29 29 28 27 27 26 26 26 26 26 25 24 24 25 26 25 25 31 33 26 25 28 27 27 30 31 32 32 32 31 29 28 28 28 29 30 31 32 32 33 33 32 31 31 30 30 29 28 27 26 26 25 25 24 23 23 25 25 26 30 32 34 36 33 29 27 25 23 22 21 21 22
24 27 30 31 31 30 29 29 28 28 27 27 27 26 26 27 28 27 27 30 32 29 28 30 30 29 30 31 32 31 32 32 31 30 29 29 30 30 32 33 34 34 34 34 33 33 32 32 31 31 30 29 28 28 27 26 25 25 26 27 28 28 28 29 33 34 33 32 30 28 26 23 21 21
21 23 25 28 30 32 33 33 32 31 30 29 29 28 27 28 28 28 28 30 30 30 29 29 30 29 28 30 31 30 30 30 29 30 31 30 30 31 31 33 35 36 35 35 35 35 35 34 33 33 33 32 31 30 29 28 27 27 28 29 29 29 28 26 27 30 31 32 33 33 31 28 26 25
20 21 22 23 25 28 31 33 34 34 34 33 33 32 30 30 29 28 29 30 31 32 31 30 30 29 28 29 29 28 27 26 26 28 30 30 30 31 31 32 34 36 36 36 35 36 37 37 36 35 35 34 34 33 32 31 31 30 30 30 30 30 29 27 26 28 28 29 31 33 34 32 31 30
20 21 22 22 22 23 26 28 30 32 34 35 35 35 34 33 33 31 29 30 31 31 32 30 29 29 28 27 27 25 23 22 23 25 25 27 28 29 29 30 32 33 34 35 36 37 38 39 39 38 37 36 36 36 35 34 34 33 32 32 31 31 30 29 28 28 28 28 29 31 33 34 32 32
19 20 21 22 22 23 24 25 26 27 29 31 32 33 34 34 34 34 33 32 30 30 31 30 29 28 27 25 23 20 19 20 21 21 21 22 25 27 27 27 28 28 30 33 35 37 38 39 39 39 39 38 38 38 37 37 37 36 35 34 34 33 32 31 30 29 28 28 29 30 32 33 32 32
18 19 20 21 21 23 24 24 24 25 26 27 27 27 28 28 29 31 32 32 31 31 31 30 28 25 22 21 20 18 18 20 21 20 19 19 21 22 23 24 23 23 25 28 31 34 37 38 39 39 39 40 40 40 39 39 39 39 39 38 37 36 35 34 33 32 31 30 29 29 30 32 32 32
14 15 17 19 20 21 23 23 24 25 25 25 24 23 22 23 24 26 27 29 30 31 31 30 29 26 23 23 23 22 20 21 23 22 21 19 17 16 18 19 20 20 21 24 26 29 32 35 36 38 38 39 40 41 41 41 41 41 41 40 40 39 38 37 36 35 34 33 31 30 30 31 32 33
12 13 14 15 16 18 19 20 21 23 24 25 25 24 22 20 20 21 23 25 28 30 31 31 31 30 29 27 26 23 22 23 22 18 19 20 16 13 14 16 17 18 19 21 22 23 25 28 31 34 36 38 39 40 41 42 42 42 42 41 41 41 40 40 39 38 37 36 35 33 32 31 32 33
14 14 14 14 14 14 14 16 17 19 21 23 25 25 23 21 19 19 21 23 26 29 30 31 31 31 31 30 27 25 23 22 20 18 20 22 17 13 13 14 14 15 17 18 19 20 20 22 25 28 32 36 38 39 41 42 43 43 42 41 41 41 42 41 41 41 40 40 38 37 36 35 33 33
16 16 16 15 14 14 14 14 15 16 17 20 23 25 24 23 22 21 22 23 25 27 29 30 31 32 33 30 28 26 23 21 21 21 20 18 13 12 15 14 12 11 13 15 16 16 16 18 22 25 29 33 35 37 40 41 42 42 42 41 40 40 41 42 42 42 42 42 42 41 40 38 37 35
17 16 15 15 15 16 16 15 14 14 15 17 19 23 25 25 25 24 24 24 25 26 28 30 31 33 33 30 27 27 24 22 21 20 18 16 14 14 16 16 11 9 9 11 14 14 14 16 21 25 28 30 32 34 37 38 39 39 39 40 40 40 41 41 42 42 42 43 43 43 42 41 40 39
16 13 13 13 14 15 16 17 17 16 16 16 17 21 24 26 27 27 26 25 24 25 26 29 30 32 32 30 27 25 22 20 20 19 19 18 17 16 15 15 12 9 9 13 16 17 15 16 20 24 26 29 30 32 33 34 35 35 36 37 38 39 40 40 41 41 42 42 42 43 43 43 42 41
14 11 11 12 12 12 13 15 17 17 18 17 18 19 22 24 26 27 28 28 27 25 24 25 27 28 29 28 24 20 18 20 19 18 17 16 15 14 13 14 14 12 13 15 18 20 18 16 20 24 25 26 28 30 31 31 31 32 33 34 35 37 38 39 40 40 41 41 42 42 42 42 42 42
12 9 9 10 11 10 10 11 13 14 15 16 17 18 20 22 23 24 26 27 28 28 27 27 25 22 23 24 21 18 18 20 19 17 16 16 16 15 15 17 19 16 15 16 19 23 21 16 19 24 23 23 25 27 29 29 29 30 31 32 33 34 36 37 38 39 40 41 41 41 41 41 41 41
11 9 10 10 11 11 10 9 10 11 12 13 15 16 18 19 21 22 23 24 26 28 30 31 27 21 20 21 20 18 19 19 17 17 17 18 19 20 20 21 21 18 17 17 19 22 20 16 19 24 22 21 22 24 26 27 28 29 30 30 32 32 33 35 36 38 39 41 41 42 41 40 40 40
11 10 9 10 11 11 11 10 9 10 11 13 14 15 16 16 17 18 18 19 21 24 27 29 28 23 20 20 19 17 16 16 15 16 18 20 21 22 22 22 21 19 17 15 15 19 18 15 18 22 20 19 20 21 23 25 27 28 29 29 31 32 33 34 36 37 38 40 41 41 41 41 40 40
12 11 11 12 13 15 15 14 13 13 14 15 15 15 15 15 15 15 14 14 17 19 22 24 25 24 22 21 19 18 17 17 17 20 23 23 22 22 22 22 20 17 15 13 13 18 18 15 16 19 17 16 16 17 19 21 23 25 27 29 30 32 34 35 36 37 38 39 40 41 42 42 42 40
14 15 15 15 15 17 17 17 16 15 16 18 18 18 16 16 18 18 15 14 15 17 19 22 24 25 24 23 23 23 22 22 23 26 28 27 25 26 26 23 21 20 17 14 14 18 18 15 15 16 15 14 13 12 12 14 16 19 22 25 27 30 32 35 36 38 39 40 41 42 42 43 43 42
16 16 16 15 16 18 18 17 16 15 15 17 20 20 20 22 22 20 18 17 17 16 17 20 23 25 25 25 25 25 24 25 26 27 27 27 28 30 30 27 25 23 20 15 12 12 12 11 12 14 14 14 11 8 9 10 10 12 14 17 20 23 26 30 33 35 38 40 41 42 43 43 43 42
16 16 17 18 19 18 18 17 17 16 17 19 21 21 23 26 24 19 17 18 17 16 16 17 18 20 21 22 22 23 24 25 25 24 24 23 23 26 28 28 26 26 24 20 17 14 12 10 10 9 9 10 10 8 8 7 8 9 10 12 14 16 18 22 25 29 33 36 39 42 43 44 44 43
16 18 21 23 21 17 15 16 17 17 17 19 22 24 26 27 24 21 21 21 20 19 20 19 19 20 19 19 20 21 22 23 23 22 23 23 22 23 26 26 27 28 27 24 21 19 17 14 12 9 8 9 11 11 10 8 8 8 8 10 11 12 13 16 19 22 26 31 35 39 42 44 44 45
16 19 22 24 23 19 15 14 15 15 15 16 19 22 24 26 26 25 25 25 24 25 24 23 23 23 22 21 21 20 21 23 24 24 24 24 24 24 25 25 26 27 26 23 21 20 18 15 13 10 9 11 12 13 13 12 9 7 8 10 11 11 12 14 17 20 23 26 30 34 37 41 43 44
18 20 23 26 25 20 14 14 15 16 16 18 19 20 20 22 24 26 26 25 26 27 26 26 26 26 25 24 23 23 21 21 23 25 26 26 26 25 25 24 24 24 23 22 21 20 18 16 15 13 12 12 13 14 15 14 11 9 10 10 11 12 14 15 17 19 21 24 27 30 33 36 39 41
23 24 25 23 20 16 16 17 17 17 17 18 19 21 21 22 23 24 25 25 26 26 27 27 28 28 27 26 26 26 23 19 19 23 25 27 27 27 26 25 24 23 22 21 21 21 20 19 19 18 15 13 14 16 16 15 13 12 12 12 12 13 14 16 19 19 20 21 24 26 30 33 35 37
25 24 22 18 17 19 21 20 18 16 15 15 16 18 21 24 25 25 25 25 26 26 27 28 29 30 30 30 31 30 25 21 19 20 22 25 26 26 26 26 26 26 24 22 21 21 22 21 21 20 19 16 15 16 16 16 15 14 14 15 15 14 14 18 19 19 19 19 20 23 26 29 32 34
25 24 22 22 23 23 21 18 17 16 16 16 15 16 18 21 24 26 26 26 27 28 29 28 28 29 29 30 31 31 29 26 24 21 20 23 24 24 25 26 28 28 27 24 22 20 22 23 22 21 21 19 17 16 15 16 17 16 14 16 17 15 15 17 18 18 19 18 17 19 21 23 27 30
25 25 25 25 25 23 19 17 16 16 15 15 15 14 14 16 19 22 24 24 25 25 25 25 25 25 24 24 25 26 27 28 28 24 21 21 22 23 24 26 28 29 28 26 23 21 21 22 21 21 21 20 18 17 15 16 18 17 14 15 16 15 14 15 16 17 19 18 16 16 18 20 23 25
26 26 26 25 24 21 17 15 14 13 12 13 13 13 12 11 13 16 19 21 22 22 23 23 23 23 22 22 22 21 22 24 26 27 25 23 21 21 23 26 27 28 28 27 24 21 20 21 21 21 21 21 19 18 16 17 19 17 14 15 15 15 13 12 12 12 12 12 14 16 18 20 22 23
25 25 24 24 22 18 14 12 11 11 11 11 12 13 12 11 11 12 15 18 22 24 24 24 24 23 22 23 23 22 21 21 23 25 27 27 24 22 24 26 27 27 28 27 24 20 19 20 21 21 22 22 21 19 18 19 18 15 14 14 13 13 11 9 9 8 6 6 9 12 15 17 20 22
22 22 22 22 21 17 14 12 11 10 10 10 10 11 12 11 11 11 12 14 16 19 21 22 23 23 23 24 25 25 24 23 22 22 24 25 25 24 25 26 25 25 27 26 23 20 19 19 20 21 21 21 20 19 20 20 18 14 13 12 11 10 9 9 9 9 7 6 6 7 8 10 13 15
20 21 22 22 20 16 14 12 11 11 11 10 10 10 10 10 10 11 11 12 12 12 13 13 15 17 18 20 23 25 26 24 22 22 22 23 24 24 24 25 24 24 26 25 22 20 19 19 19 20 19 19 19 20 21 20 18 15 14 12 10 10 11 10 8 6 5 4 5 5 6 6 7 9
22 22 23 23 20 17 15 13 12 13 13 12 12 11 10 10 10 11 12 13 14 14 14 13 14 15 16 17 18 21 24 24 23 21 21 22 23 23 22 23 23 23 23 22 20 19 19 19 19 20 20 21 22 22 21 20 17 16 16 14 11 12 13 10 7 5 4 2 2 2 3 4 4 4
23 23 23 22 19 17 16 14 14 14 14 13 13 12 11 11 11 10 11 13 15 16 17 18 17 16 15 16 16 18 20 23 24 22 20 19 22 22 21 22 22 21 20 19 18 18 18 18 19 21 21 22 22 21 20 19 17 17 17 15 13 14 14 11 9 6 4 3 2 1 1 1 1 2
22 23 23 21 18 16 16 16 14 14 14 15 14 13 12 12 11 10 10 11 11 12 13 14 14 13 12 13 15 17 18 20 23 22 19 17 20 21 22 23 23 21 19 18 17 16 17 19 21 21 20 21 23 22 20 18 17 16 16 15 15 16 15 13 11 8 6 5 4 2 2 2 2 3
22 23 23 20 17 16 16 15 13 13 14 14 12 11 11 11 11 11 10 9 9 9 9 9 9 10 11 12 12 12 13 16 19 19 17 17 20 21 22 22 22 21 19 18 17 17 18 20 22 20 19 21 22 19 16 14 14 15 14 14 17 18 16 14 13 10 8 7 6 4 3 3 4 4
23 23 21 18 17 16 14 13 13 13 13 11 10 10 10 10 10 10 10 9 9 8 7 6 7 8 10 11 10 10 10 12 14 15 15 17 19 21 21 20 20 20 18 16 16 17 18 19 20 20 21 22 20 16 13 12 13 13 13 14 17 18 17 15 13 11 10 9 7 6 6 5 5 5
24 22 19 16 15 15 13 12 12 12 11 11 11 11 10 10 9 9 9 9 9 9 8 6 5 6 8 9 10 11 11 10 10 12 15 17 18 19 20 21 20 19 18 16 16 16 15 16 17 19 21 21 20 18 16 16 16 14 12 12 15 18 18 16 14 13 11 10 8 8 8 8 7 6
21 18 16 14 14 14 13 12 11 11 10 11 11 11 10 10 9 9 9 8 8 9 9 8 7 8 8 8 9 12 13 12 11 11 14 16 15 16 18 18 16 16 16 15 15 14 13 13 15 18 20 21 20 20 20 19 19 17 14 13 14 17 18 18 16 15 13 11 10 10 9 9 9 8
17 15 15 14 13 13 12 11 10 10 10 10 10 10 10 9 9 8 8 8 8 8 8 8 8 9 9 7 7 10 14 15 14 11 11 13 13 14 15 15 14 14 15 14 13 13 12 12 13 16 19 20 20 20 21 20 19 17 15 14 14 16 17 17 17 16 14 13 12 12 10 9 9 8
16 15 15 14 13 12 10 9 9 9 9 9 9 9 9 8 8 8 8 8 7 7 7 7 7 7 7 6 6 8 12 14 14 13 12 12 12 12 13 13 13 13 12 12 12 12 13 13 13 15 17 19 19 19 20 20 19 18 16 15 16 17 17 16 15 13 12 12 12 12 10 10 9 8
15 15 15 14 12 10 9 9 9 8 8 8 8 8 8 7 7 8 8 8 7 6 6 7 6 5 5 5 5 7 9 10 9 11 12 12 12 12 11 11 10 11 10 10 11 12 13 14 14 14 15 16 16 16 17 17 17 17 16 16 16 16 15 14 13 12 11 12 12 12 11 11 11 11
Wind_Direction
268 268 267 266 266 266 266 265 264 263 262 259 257 256 255 259 267 274 279 280 280 283 285 282 280 278 274 270 267 264 263 260 256 252 248 246 246 246 245 245 245 245 244 245 246 247 246 244 242 241 239 237 233 233 233 234 236 240 242 243 245 245 238 232 228 228 230 230 233 235 231 232 230 222
265 264 263 261 261 262 262 262 261 261 261 258 255 254 255 255 258 264 272 276 276 279 282 280 279 277 274 272 269 267 266 265 263 261 256 250 247 248 247 245 245 244 244 245 245 246 247 246 245 243 242 241 238 235 233 233 232 234 239 241 242 244 243 240 234 228 229 229 229 232 233 236 235 228
261 260 259 258 257 258 258 258 259 259 258 256 255 254 253 253 254 257 265 271 271 273 277 279 279 279 277 275 274 272 271 270 270 268 264 257 250 248 248 247 245 244 244 244 245 245 246 247 247 246 244 243 243 240 237 235 232 232 236 238 238 240 241 242 240 234 230 229 227 226 228 231 232 232
260 257 256 255 255 255 256 256 256 257 257 257 258 257 252 249 251 254 258 266 270 271 273 275 276 277 279 280 279 278 276 275 273 271 269 264 256 249 247 247 247 246 245 244 245 245 245 246 247 247 246 245 244 243 240 237 233 232 235 236 236 238 238 238 241 242 239 236 231 226 226 228 228 232
264 260 257 255 253 253 254 255 255 255 256 257 258 258 254 250 251 254 256 263 270 272 271 272 274 277 281 282 281 282 281 278 275 273 270 267 262 255 249 248 248 248 247 246 245 246 245 245 246 246 247 246 246 245 243 241 237 235 237 237 237 239 239 236 237 241 242 241 241 238 236 236 233 234
271 266 262 259 256 254 253 253 254 254 255 256 257 255 252 251 251 253 255 259 266 270 270 271 274 277 279 281 281 283 284 282 279 274 269 266 264 260 255 250 248 248 249 248 247 247 247 246 246 246 246 247 247 247 247 246 243 241 241 241 240 240 242 239 235 235 237 237 239 242 244 244 242 240
273 270 268 266 262 258 256 254 253 254 254 255 255 254 252 252 252 252 253 256 261 266 269 271 274 276 279 280 282 284 285 284 279 273 267 265 263 261 259 255 251 249 248 249 249 249 248 247 247 247 247 247 248 248 249 249 248 247 246 247 247 245 245 242 236 236 237 233 233 238 242 244 245 244
273 270 269 268 266 263 260 258 256 255 255 255 255 255 254 253 254 254 253 253 257 262 268 270 272 275 278 281 283 286 285 281 276 272 269 266 262 260 260 259 257 253 250 249 250 250 250 249 248 248 248 249 249 249 249 250 251 251 251 251 251 251 250 247 241 239 239 238 234 234 237 240 242 243
277 273 271 269 266 263 262 261 259 258 257 257 256 257 257 256 256 255 254 253 253 257 262 266 270 273 276 278 280 279 278 278 277 273 269 265 262 261 260 260 261 260 255 251 249 250 251 251 250 249 249 250 250 250 251 251 251 252 252 253 252 252 253 252 249 245 242 241 239 235 234 234 235 236
283 278 275 272 269 265 263 262 261 259 258 256 255 255 256 256 255 253 252 251 250 252 255 261 267 269 268 267 267 265 268 277 281 279 273 264 260 262 263 261 261 262 259 255 251 250 251 251 252 251 250 250 250 250 251 251 252 252 253 253 254 254 254 253 253 251 248 245 243 240 236 234 233 232
295 288 281 276 272 269 268 265 263 261 258 254 250 249 252 253 252 250 248 247 247 249 252 255 259 260 260 259 263 267 270 273 277 280 280 273 264 263 265 261 258 257 256 256 253 252 251 251 252 253 252 251 251 251 251 252 252 253 254 254 255 255 256 256 255 254 253 250 248 245 241 238 236 234
308 308 301 290 281 276 273 271 267 263 260 255 249 246 248 250 250 248 246 244 244 246 249 252 255 259 262 262 264 267 268 268 269 274 284 286 276 263 259 257 255 253 251 251 252 252 252 253 252 253 253 252 252 251 251 252 253 253 254 255 256 257 257 258 258 256 256 254 252 250 247 243 241 238
306 307 306 303 297 288 281 276 271 266 261 257 253 249 247 247 248 249 248 245 244 244 246 249 252 256 259 261 263 263 262 264 270 278 284 284 279 274 268 257 249 251 251 249 248 247 248 250 250 250 251 251 251 252 252 252 252 253 254 255 256 258 258 259 260 259 258 257 255 254 251 248 246 242
309 304 299 297 295 290 283 277 271 268 263 257 255 254 252 249 249 251 251 249 245 243 243 246 249 253 256 258 261 262 260 263 271 277 279 278 280 288 285 269 248 243 248 247 246 242 240 245 246 246 248 250 250 251 251 252 252 253 254 255 256 258 259 259 260 261 260 260 258 257 255 253 251 247
308 299 294 292 288 282 276 270 268 267 265 262 256 253 252 254 256 256 257 257 254 249 247 245 247 251 256 257 258 260 262 265 269 272 275 276 273 274 282 280 257 232 245 264 264 255 246 249 251 247 247 249 249 250 251 251 253 253 253 254 255 256 258 259 260 261 261 261 261 260 259 257 256 253
303 286 283 287 285 282 277 269 264 260 259 260 256 250 247 250 256 260 263 263 262 258 254 252 250 250 254 258 258 257 259 265 270 273 272 270 268 267 275 280 263 247 274 290 285 275 262 257 260 255 250 249 249 249 250 250 251 252 252 253 254 255 256 257 258 260 260 261 262 262 261 260 259 258
293 267 271 283 282 283 283 274 267 262 257 255 253 250 248 246 246 252 258 263 266 265 262 259 255 252 252 255 254 253 261 268 272 273 269 267 270 270 270 272 269 272 285 288 285 282 274 266 267 263 255 252 250 248 249 248 249 250 251 251 252 253 254 255 256 257 259 260 261 261 262 262 261 260
283 249 255 274 274 275 280 278 277 274 268 262 257 252 250 248 244 242 243 246 253 259 264 265 261 252 250 252 251 252 262 270 272 274 275 276 278 277 275 276 274 270 271 274 277 280 278 276 275 268 260 256 252 246 245 244 244 246 248 250 251 252 252 253 254 255 256 257 259 260 260 261 262 261
289 261 254 261 261 263 264 263 270 275 275 273 269 263 258 253 251 248 243 238 236 239 247 256 257 251 246 247 249 253 262 268 273 278 282 284 286 285 283 278 269 260 258 264 272 279 281 281 277 272 267 260 250 241 237 238 239 243 246 247 249 250 251 251 252 253 254 256 257 258 259 260 261 261
295 287 277 273 275 278 277 273 272 274 275 272 269 269 271 267 262 258 256 252 244 237 237 244 251 253 254 255 257 261 265 267 274 282 286 288 287 284 282 277 267 262 264 269 277 282 283 280 275 274 273 265 250 237 233 234 237 240 243 244 245 246 247 249 250 251 252 254 255 256 257 257 258 259
294 294 287 281 277 275 274 273 272 273 277 277 270 266 268 271 269 265 260 257 255 251 247 248 253 258 263 267 269 269 268 270 275 277 279 283 282 276 275 275 272 274 280 283 287 288 285 282 277 275 275 270 257 243 236 234 235 238 241 242 243 244 245 246 247 249 250 251 253 254 255 255 256 256
290 293 291 286 280 274 271 268 265 264 268 271 272 272 273 272 267 262 259 255 252 251 252 253 254 257 259 262 264 265 264 266 268 266 267 272 272 267 268 273 278 286 288 283 285 288 284 278 274 273 276 276 267 253 243 238 237 238 241 243 244 244 245 246 246 247 249 250 251 252 254 255 255 254
288 295 298 297 294 288 281 274 269 267 265 264 267 270 271 271 268 264 263 262 258 254 254 253 252 253 254 255 257 259 260 261 261 260 260 262 262 261 265 270 274 279 279 277 283 289 283 275 268 263 264 270 270 258 245 240 238 238 238 240 243 244 245 247 247 248 248 249 250 250 252 253 253 253
281 285 288 292 297 292 280 272 269 266 263 261 263 263 262 265 272 275 273 271 271 269 267 263 259 257 256 256 258 259 259 261 261 257 254 253 252 254 259 262 264 265 267 269 274 280 284 286 278 264 257 261 268 267 256 246 245 244 239 237 239 241 243 246 248 249 249 249 249 250 250 251 251 251
270 274 280 288 299 298 280 269 268 265 260 256 255 256 259 265 274 280 277 275 277 276 273 272 270 267 265 263 259 253 250 251 252 248 245 247 249 248 250 252 255 257 259 263 268 274 279 282 281 282 276 266 270 280 280 269 263 262 256 249 245 245 246 248 248 249 250 251 250 250 249 250 250 250
270 274 278 286 300 305 290 277 279 279 276 269 260 256 257 261 266 270 272 274 276 275 275 275 273 272 270 267 264 257 247 243 243 241 240 243 247 248 248 249 252 255 259 264 270 274 275 272 269 272 273 271 278 287 285 277 276 278 271 262 257 257 259 261 260 257 255 254 253 252 250 249 248 248
260 266 274 286 301 309 300 288 285 278 269 264 261 259 257 255 256 258 261 264 266 269 271 271 270 271 270 268 268 264 254 245 244 245 245 244 245 247 250 251 253 257 261 264 266 268 266 259 254 258 265 271 277 281 282 283 289 292 284 275 271 275 279 279 277 275 270 264 259 255 252 250 247 246
254 265 278 291 300 298 290 285 281 274 265 258 255 255 254 252 251 252 252 253 256 260 263 264 264 266 267 266 266 263 258 253 251 250 249 248 247 248 250 252 253 256 258 258 259 260 258 251 247 250 257 262 268 274 280 286 291 292 289 284 279 283 288 287 286 287 284 274 266 259 254 251 248 245
261 270 280 285 283 284 286 286 280 274 271 267 263 259 255 251 249 249 249 250 252 255 257 258 259 259 259 259 261 263 263 262 258 252 247 246 247 248 248 249 250 251 253 255 255 256 256 251 246 245 249 252 259 268 277 282 286 288 292 292 288 286 290 292 293 296 294 281 269 261 257 253 250 246
266 271 275 276 281 285 286 283 279 275 270 269 272 269 262 255 250 248 248 250 251 253 255 258 262 263 261 260 261 263 262 260 257 253 248 245 245 246 246 246 247 247 249 253 256 257 256 254 249 247 249 250 254 263 272 279 282 284 290 295 294 292 294 295 295 299 300 289 271 260 257 255 252 249
263 269 272 277 283 286 282 279 281 279 275 277 281 280 271 261 253 250 249 250 251 253 255 257 260 263 265 266 265 263 260 255 251 248 248 245 244 244 245 245 245 245 246 249 252 254 254 253 250 248 247 249 253 260 268 275 278 280 286 293 293 291 292 294 293 298 304 297 278 263 258 256 254 253
260 264 269 276 282 282 278 276 278 281 289 298 300 298 291 278 265 258 253 250 250 252 256 258 258 257 258 261 264 264 262 257 250 245 244 245 244 243 243 243 243 243 244 244 245 248 249 248 247 244 241 243 249 256 263 270 272 275 283 290 288 285 287 290 290 298 307 297 273 258 252 251 250 250
257 263 270 278 280 276 269 267 271 284 303 312 314 312 308 299 288 277 266 258 253 250 252 255 257 257 257 256 257 259 260 260 255 249 244 243 242 241 241 242 242 242 242 241 241 244 245 242 241 240 237 238 243 251 260 267 268 269 277 282 280 279 279 272 264 268 279 271 252 241 234 232 233 236
255 263 269 274 276 271 263 260 266 282 298 305 311 316 311 300 294 288 278 269 260 255 255 254 254 257 258 254 252 253 255 258 260 256 249 243 239 237 237 240 241 242 241 239 239 243 246 242 236 233 234 237 242 249 258 263 262 261 267 271 266 259 252 241 243 251 252 243 238 233 222 210 205 209
256 259 262 268 271 266 257 255 263 277 289 294 299 308 307 297 291 288 282 275 267 266 270 268 262 263 263 259 256 253 250 252 255 256 253 245 235 229 231 237 242 243 239 235 235 240 246 242 231 226 231 239 243 247 253 256 255 253 256 260 253 237 229 228 233 238 236 230 228 230 227 210 189 179
253 252 257 264 266 260 253 254 262 273 281 286 290 298 302 295 288 283 279 273 265 264 269 271 271 271 265 261 260 254 248 247 248 251 254 245 230 224 227 235 242 244 237 232 231 234 239 239 231 225 228 233 238 243 247 248 246 244 246 250 244 228 221 218 211 204 208 218 219 226 231 221 207 193
244 246 256 263 262 254 249 251 258 269 280 286 288 291 293 292 288 282 280 276 268 263 264 268 274 276 267 257 257 254 247 241 241 249 256 243 224 218 223 230 238 241 234 229 231 231 232 235 233 229 228 230 234 240 245 246 243 240 241 242 233 220 213 206 195 192 202 209 213 237 264 255 261 263
238 245 255 259 258 252 249 250 257 270 281 286 286 285 287 290 291 288 289 289 282 276 274 274 274 274 267 257 255 253 245 236 235 243 251 237 217 215 222 227 232 233 228 228 232 233 232 233 233 230 228 230 233 238 244 245 239 235 236 233 219 209 206 202 198 200 209 216 221 239 262 290 315 316
238 247 253 255 254 250 248 252 262 274 280 282 282 281 280 282 284 286 290 294 292 289 291 290 280 269 261 255 250 247 244 236 230 233 239 231 220 220 224 227 228 228 227 229 229 228 228 230 230 229 230 233 235 240 246 247 239 236 238 229 211 203 206 208 206 207 214 220 229 245 263 290 308 304
240 248 253 252 247 243 242 250 263 271 274 274 275 277 276 273 274 278 283 287 288 283 283 295 297 280 265 253 238 230 239 242 234 229 231 230 227 225 224 223 223 226 230 231 225 222 225 226 225 227 231 234 237 241 243 241 237 237 241 232 215 208 211 215 214 214 218 224 236 252 267 280 288 283
245 250 251 243 236 235 239 250 259 264 266 269 273 277 278 274 271 273 276 281 283 279 274 281 296 293 280 261 236 226 232 239 236 231 229 228 226 221 218 218 220 222 226 228 224 223 228 229 227 228 230 230 232 233 233 234 233 232 235 235 225 219 218 217 215 219 228 236 247 260 271 276 274 267
247 248 242 231 228 231 238 248 255 259 263 269 274 275 276 274 271 271 272 273 275 274 271 270 273 280 286 277 250 235 228 224 225 228 225 222 218 213 212 217 222 221 222 226 225 221 221 223 222 224 226 226 227 229 232 235 236 232 229 230 229 226 222 216 213 219 231 242 251 261 269 269 263 256
246 241 230 223 223 229 236 244 253 259 264 270 273 273 273 272 269 268 270 270 268 266 265 264 264 271 281 283 259 233 221 218 218 219 216 216 216 212 210 212 213 212 214 218 216 211 214 220 221 221 222 224 227 228 231 233 235 234 232 231 228 226 224 218 211 212 220 234 250 258 258 252 247 245
237 228 219 215 217 224 232 241 251 258 263 266 268 270 269 268 266 266 266 267 265 260 256 256 259 266 273 270 243 219 214 215 215 212 213 217 216 207 200 199 203 209 217 222 223 223 223 224 224 222 222 224 225 224 225 227 229 231 233 230 224 220 219 217 214 214 219 232 247 251 245 238 239 240
226 216 209 207 211 219 228 240 250 256 259 260 264 269 268 265 266 266 264 263 264 259 253 251 251 248 246 242 221 202 199 204 210 212 212 208 199 191 189 195 206 219 227 230 233 229 219 213 213 216 216 215 215 216 217 220 222 221 218 214 212 212 212 213 217 223 228 233 237 240 239 239 241 243